[[{"header":{"parameterUnit":"m.s-1","parameterCategory":2,"la1":30.2991,"la2":30.254,"lo1":-89.0895,"lo2":-89.0444,"dy":0.0017,"dx":0.0017,"nx":28,"ny":28,"refTime":"2025-02-23T03:00:00:Z","depth":"0","parameterNumber":2,"parameterNumberName":"U-component_of_CURRENTS"},"data":[0,0,0,0,0,0,0,0,0,0,0,0,0,0,0,0,0,0,0,0,0,0,0,0,0,0,0,0,0,0,0,0,0,0,0,0,0,0,0,0,0,0,0,0,0,0,0,0,0,0,0,0,0,0,0,0,0,0,0.2421,0.2422,0,0.2422,0.2421,0.2421,0.24,0.24,0.2399,0.2399,0.2368,0.2367,0.2367,0,0,0,0,0,0,0,0,0,0,0,0,0,0.2402,0.2402,0.2421,0.2422,0.2422,0.2422,0.2421,0.2421,0.24,0.24,0.2399,0.2399,0.2368,0.2367,0.2367,0,0,0,0,0,0,0,0,0,0,0,0,0,0.2405,0.2403,0.2421,0.2413,0.2412,0.2422,0.2421,0.2421,0.24,0.24,0.2399,0.2398,0.2368,0.2368,0.2367,0.2373,0,0,0.2365,0.2364,0,0,0,0,0,0,0,0,0.2405,0.2406,0.2414,0.2414,0.2413,0.2412,0.2403,0.2404,0.24,0.2402,0.2399,0.2398,0.2382,0.238,0.2378,0.2372,0.237,0.2364,0.2364,0.2364,0.2363,0,0,0,0,0,0,0,0.2405,0.2405,0.2419,0.2414,0.2414,0.2409,0.2409,0.2403,0.2393,0.2402,0.2401,0.2405,0.2381,0.2379,0.2377,0.237,0.2364,0.2364,0.2363,0.2363,0.2401,0.2402,0,0,0,0,0,0,0.241,0.2405,0.2419,0.2419,0.241,0.241,0.2409,0.2411,0.2393,0.2391,0.2405,0.2404,0.2381,0.2378,0.2376,0.2404,0.2364,0.2363,0.2363,0.2399,0.2401,0.2403,0,0,0,0,0,0,0.241,0.2411,0.2419,0.2414,0.2415,0.2411,0.2413,0.2411,0.2414,0.2397,0.2393,0.2411,0.238,0.2377,0.2383,0.2402,0.2363,0.2362,0.2398,0.24,0.2402,0.2446,0,0,0,0,0,0,0.2409,0.2411,0.2415,0.2415,0.2416,0.2434,0.2414,0.2412,0.2418,0.2416,0.24,0.2396,0.2379,0.2384,0.2382,0.24,0.2361,0.2396,0.2399,0.2401,0.2443,0.245,0.2455,0,0,0,0,0,0.2408,0.2417,0.2415,0.2417,0.2421,0.2435,0.2435,0.2429,0.2419,0.2427,0.2417,0.2397,0.24,0.2384,0.2382,0.24,0.2394,0.2398,0.2401,0.244,0.2448,0.2455,0,0,0,0,0,0,0.2409,0.2416,0.2413,0.2423,0.2433,0.2432,0.244,0.2436,0.2435,0.2432,0.241,0.2407,0.2423,0.2409,0.2392,0.2422,0.2396,0.2399,0.2427,0.2434,0.2441,0.2452,0.2361,0,0,0,0,0,0.2413,0.242,0.2428,0.2436,0.2444,0.2444,0.2448,0.2447,0.2447,0.2445,0.2434,0.2428,0.2434,0.2431,0.2433,0.2442,0.2454,0.2456,0.2462,0.2467,0.2478,0.2518,0.2529,0.2413,0.2413,0.2413,0,0,0.2414,0.242,0.2423,0.2437,0.2443,0.2458,0.2445,0.2459,0.247,0.2443,0.2452,0.2451,0.2444,0.246,0.2466,0.2448,0.2508,0.2472,0.2476,0.2483,0.2523,0.2534,0.2544,0.2415,0.2415,0.2415,0,0,0.2424,0.243,0.2441,0.2453,0.247,0.2474,0.2482,0.2489,0.2491,0.2502,0.2493,0.2508,0.25,0.2509,0.251,0.2553,0.2545,0.2551,0.2584,0.2623,0.2633,0.2642,0.2676,0.2688,0.2548,0.2548,0.2548,0,0.2426,0.2441,0.2447,0.2465,0.2478,0.2484,0.2503,0.251,0.2517,0.2527,0.2511,0.2536,0.2528,0.2561,0.2575,0.2568,0.2585,0.2551,0.2631,0.264,0.2648,0.2682,0.2694,0.255,0.255,0.255,0.255,0,0.2446,0.2459,0.2471,0.2493,0.2509,0.2529,0.2545,0.256,0.2562,0.2569,0.2602,0.2601,0.2617,0.2619,0.2606,0.2663,0.2656,0.2638,0.261,0.2662,0.2694,0.2706,0.2554,0.2553,0.2552,0.2552,0,0,0.2439,0.2477,0.2479,0.2491,0.2527,0.2537,0.2572,0.2602,0.2627,0.2636,0.2672,0.2687,0.2692,0.2696,0.2692,0.272,0.2792,0.2703,0.2704,0.2734,0.2881,0.2872,0.2884,0.2785,0.2788,0.2789,0.2882,0,0.2451,0.248,0.2502,0.2531,0.2548,0.2575,0.2605,0.2633,0.266,0.2697,0.2714,0.2746,0.272,0.2736,0.2764,0.2789,0.2824,0.2768,0.2829,0.2831,0.2814,0.2898,0.2829,0.2905,0.2893,0.2895,0.2897,0,0.246,0.2478,0.2507,0.2547,0.2559,0.2578,0.2632,0.2661,0.2722,0.275,0.2793,0.2808,0.2861,0.2828,0.2903,0.2868,0.2883,0.2896,0.2899,0.2884,0.2844,0.2851,0.2927,0.2905,0.2914,0.2913,0.2912,0,0.2436,0.2479,0.2499,0.2512,0.2561,0.258,0.2608,0.267,0.2712,0.2789,0.2834,0.289,0.2929,0.2961,0.2986,0.2953,0.3068,0.3023,0.3031,0.303,0.2981,0.2972,0.304,0.3085,0.3084,0.3084,0.3084,0,0.2435,0.2448,0.2484,0.2492,0.2522,0.256,0.2608,0.2656,0.274,0.2796,0.2854,0.2916,0.2966,0.3027,0.3032,0.3083,0.3109,0.3065,0.3065,0.2995,0.2986,0.2971,0.2945,0.3088,0.3087,0.3086,0.3085,0,0.2404,0.2431,0.2452,0.2495,0.2509,0.2525,0.2602,0.2644,0.273,0.2811,0.2842,0.2961,0.3046,0.3092,0.3164,0.3149,0.3122,0.3194,0.3109,0.3098,0.3063,0.3042,0.2974,0.2859,0.3222,0.3222,0.3223,0,0.239,0.2398,0.2438,0.2451,0.2469,0.2503,0.2536,0.2626,0.268,0.2828,0.2867,0.2993,0.3076,0.3199,0.3217,0.3261,0.3148,0.3196,0.3117,0.3083,0.306,0.2918,0.2813,0.3072,0.3071,0.307,0.307,0,0.2366,0.238,0.2398,0.242,0.2445,0.2475,0.2526,0.2569,0.2676,0.2757,0.2871,0.2958,0.3112,0.3152,0.323,0.3232,0.3072,0.3182,0.3172,0.2984,0.2808,0.2689,0.2987,0.3064,0.3064,0.3065,0.3065,0.3065,0.2346,0.2348,0.237,0.2386,0.241,0.2424,0.2424,0.2494,0.2562,0.2658,0.2795,0.2909,0.3059,0.3177,0.3155,0.3132,0.3049,0.3057,0.3047,0.2915,0.2763,0.3053,0.3109,0.311,0.311,0.3111,0.3112,0,0.2313,0.2319,0.2335,0.2336,0.2327,0.2363,0.2399,0.239,0.2419,0.2574,0.2664,0.2854,0.2948,0.3044,0.3109,0.3028,0.2841,0.2955,0.2751,0.2659,0.2968,0.2923,0.2911,0.2911,0.2911,0.2911,0.2911,0.2911,0.2297,0.2288,0.2288,0.2247,0.2245,0.2195,0.2192,0.22,0.2284,0.2385,0.2509,0.2647,0.2929,0.3128,0.3107,0.3009,0.2754,0.2663,0.2597,0.2873,0.2881,0.2889,0.2843,0.2813,0.2813,0.2168,0.2164,0.2161]},{"header":{"parameterUnit":"m.s-1","parameterCategory":2,"la1":30.2991,"la2":30.254,"lo1":-89.0895,"lo2":-89.0444,"dy":0.0017,"dx":0.0017,"nx":28,"ny":28,"refTime":"2025-02-23T03:00:00:Z","depth":"0","parameterNumber":3,"parameterNumberName":"V-component_of_CURRENTS"},"data":[0,0,0,0,0,0,0,0,0,0,0,0,0,0,0,0,0,0,0,0,0,0,0,0,0,0,0,0,0,0,0,0,0,0,0,0,0,0,0,0,0,0,0,0,0,0,0,0,0,0,0,0,0,0,0,0,0,0,-0.0163,-0.0164,0,-0.0222,-0.0223,-0.0223,-0.0262,-0.0262,-0.0262,-0.0262,-0.0329,-0.0331,-0.0333,0,0,0,0,0,0,0,0,0,0,0,0,0,-0.0131,-0.0131,-0.0163,-0.0164,-0.0164,-0.0222,-0.0223,-0.0224,-0.0262,-0.0262,-0.0262,-0.0262,-0.0329,-0.0331,-0.0333,0,0,0,0,0,0,0,0,0,0,0,0,0,-0.0164,-0.0131,-0.0163,-0.0189,-0.0192,-0.0221,-0.0223,-0.0224,-0.0262,-0.0262,-0.0262,-0.0262,-0.0328,-0.0331,-0.0333,-0.0345,0,0,-0.0341,-0.0342,0,0,0,0,0,0,0,0,-0.0162,-0.0165,-0.0185,-0.0188,-0.0191,-0.0233,-0.0236,-0.0264,-0.0262,-0.0237,-0.0262,-0.0263,-0.0297,-0.0302,-0.0315,-0.0348,-0.0351,-0.0341,-0.0343,-0.0344,-0.0344,0,0,0,0,0,0,0,-0.016,-0.0163,-0.0188,-0.0186,-0.0189,-0.0214,-0.0219,-0.0242,-0.0267,-0.0239,-0.0242,-0.0246,-0.0299,-0.0312,-0.0317,-0.0352,-0.0341,-0.0343,-0.0345,-0.0346,-0.0391,-0.039,0,0,0,0,0,0,-0.0147,-0.0161,-0.0186,-0.019,-0.0175,-0.0214,-0.0219,-0.0221,-0.0266,-0.0273,-0.0246,-0.0247,-0.0308,-0.0314,-0.0319,-0.0319,-0.0344,-0.0346,-0.0347,-0.0391,-0.0391,-0.039,0,0,0,0,0,0,-0.0146,-0.0148,-0.0184,-0.0176,-0.0182,-0.0214,-0.0216,-0.0222,-0.0232,-0.0271,-0.0278,-0.0248,-0.0308,-0.0316,-0.0332,-0.0322,-0.0347,-0.0349,-0.0391,-0.0391,-0.039,-0.0329,0,0,0,0,0,0,-0.0145,-0.0148,-0.0145,-0.0175,-0.0182,-0.0192,-0.0216,-0.0223,-0.0234,-0.0236,-0.0276,-0.0282,-0.0309,-0.0328,-0.0334,-0.0326,-0.0351,-0.0392,-0.0391,-0.0391,-0.0331,-0.0326,-0.0322,0,0,0,0,0,-0.0143,-0.0134,-0.0144,-0.0147,-0.0176,-0.0191,-0.0197,-0.0222,-0.0233,-0.0233,-0.0259,-0.0281,-0.0329,-0.033,-0.0337,-0.0329,-0.0392,-0.0391,-0.0391,-0.0333,-0.0327,-0.0322,0,0,0,0,0,0,-0.0119,-0.0138,-0.015,-0.0147,-0.0164,-0.0197,-0.0199,-0.0216,-0.0238,-0.0239,-0.0277,-0.0286,-0.0297,-0.0322,-0.0322,-0.0341,-0.0364,-0.0365,-0.0318,-0.0312,-0.0308,-0.0291,-0.0353,0,0,0,0,0,-0.0111,-0.011,-0.0134,-0.0132,-0.0137,-0.0167,-0.0177,-0.0192,-0.0215,-0.0225,-0.0252,-0.028,-0.0301,-0.0312,-0.0337,-0.0346,-0.0372,-0.0347,-0.0342,-0.0338,-0.0329,-0.0361,-0.0358,-0.0388,-0.0388,-0.0388,0,0,-0.0102,-0.0112,-0.0112,-0.0126,-0.0142,-0.0141,-0.0173,-0.0181,-0.018,-0.0228,-0.0235,-0.0265,-0.0301,-0.0311,-0.0319,-0.0329,-0.0342,-0.0337,-0.0333,-0.0327,-0.0359,-0.0357,-0.0354,-0.0387,-0.0387,-0.0388,0,0,-0.0078,-0.009,-0.0079,-0.0088,-0.0103,-0.0119,-0.0117,-0.0144,-0.0157,-0.0169,-0.0202,-0.0223,-0.0258,-0.0279,-0.0295,-0.028,-0.0318,-0.029,-0.0251,-0.0281,-0.0279,-0.0277,-0.0302,-0.0303,-0.0286,-0.0286,-0.0286,0,-0.0066,-0.0055,-0.0079,-0.0069,-0.0068,-0.0103,-0.0088,-0.0106,-0.0136,-0.014,-0.0161,-0.021,-0.0242,-0.0252,-0.0248,-0.0268,-0.0291,-0.0268,-0.0274,-0.0273,-0.0272,-0.0299,-0.0301,-0.0283,-0.0283,-0.0283,-0.0284,0,-0.0034,-0.0025,-0.0018,-0.0015,-0.0018,-0.0011,-0.0033,-0.004,-0.0061,-0.008,-0.0099,-0.0147,-0.0174,-0.019,-0.0215,-0.0222,-0.0241,-0.0265,-0.0285,-0.0265,-0.0295,-0.0298,-0.0278,-0.028,-0.028,-0.0281,0,0,-0.0001,0.0004,0.0009,0.0023,0.0014,0.0019,0.0022,0.0018,0.0028,-0.0016,-0.0011,-0.006,-0.0089,-0.0109,-0.0148,-0.0176,-0.0193,-0.0212,-0.0215,-0.0231,-0.0256,-0.0268,-0.0273,-0.0219,-0.0219,-0.0219,-0.0277,0,0.0034,0.0069,0.0061,0.0096,0.0115,0.0091,0.0098,0.0088,0.0073,0.0066,0.001,-0.0003,-0.0057,-0.0067,-0.0104,-0.0167,-0.0199,-0.0175,-0.0278,-0.0281,-0.0289,-0.0276,-0.0274,-0.0325,-0.028,-0.0281,-0.0281,0,0.0075,0.0094,0.0134,0.0158,0.0164,0.0174,0.0192,0.0196,0.0174,0.016,0.0132,0.0089,0.0045,-0.0008,-0.0107,-0.009,-0.0164,-0.0222,-0.0226,-0.0259,-0.0298,-0.034,-0.0333,-0.0503,-0.0287,-0.0286,-0.0286,0,0.0119,0.0151,0.0187,0.0195,0.0209,0.0221,0.0229,0.0224,0.0248,0.0225,0.0235,0.0165,0.014,0.0036,-0.0081,-0.0094,-0.0195,-0.0231,-0.0314,-0.0316,-0.0345,-0.0349,-0.0509,-0.0304,-0.0304,-0.0304,-0.0304,0,0.0167,0.0198,0.021,0.0231,0.0278,0.0268,0.0317,0.0313,0.0325,0.0364,0.0289,0.0304,0.015,0.0075,-0.0051,-0.0182,-0.0174,-0.0301,-0.0329,-0.0323,-0.0324,-0.0499,-0.0606,-0.0306,-0.0306,-0.0305,-0.0305,0,0.0211,0.0218,0.0264,0.0287,0.03,0.0335,0.0385,0.0425,0.0419,0.0469,0.0467,0.0413,0.0317,0.016,-0.0002,-0.0128,-0.037,-0.0317,-0.0295,-0.032,-0.0557,-0.0659,-0.0855,-0.0947,-0.0417,-0.0418,-0.0418,0,0.0236,0.0264,0.0311,0.0347,0.036,0.041,0.0452,0.047,0.0525,0.0545,0.058,0.0507,0.0479,0.0237,0.0001,-0.0219,-0.0392,-0.0374,-0.0404,-0.0566,-0.0702,-0.0778,-0.0846,-0.0422,-0.0422,-0.0423,-0.0423,0,0.0289,0.0301,0.0341,0.0412,0.0464,0.0531,0.0593,0.0652,0.0681,0.0728,0.0775,0.0755,0.0526,0.0321,0.001,-0.0163,-0.0513,-0.0389,-0.0569,-0.0726,-0.0808,-0.091,-0.0389,-0.0427,-0.0426,-0.0426,-0.0426,-0.0426,0.033,0.0366,0.0416,0.0486,0.0552,0.0638,0.0699,0.0784,0.088,0.0951,0.0927,0.093,0.0606,0.0194,-0.0064,-0.0538,-0.0553,-0.068,-0.0791,-0.0852,-0.0945,-0.0424,-0.0487,-0.0487,-0.0487,-0.0487,-0.0487,0,0.0382,0.0422,0.0489,0.0569,0.0644,0.0669,0.0787,0.0852,0.0974,0.1056,0.1098,0.0945,0.0549,0.0115,-0.0498,-0.0853,-0.1007,-0.1071,-0.1192,-0.1244,-0.0787,-0.079,-0.0906,-0.0906,-0.0906,-0.0906,-0.0906,-0.0905,0.0412,0.048,0.0508,0.0629,0.0687,0.0781,0.0848,0.0956,0.1041,0.1121,0.1131,0.1105,0.075,-0.0291,-0.1058,-0.1255,-0.1545,-0.1609,-0.1753,-0.1454,-0.1426,-0.14,-0.1427,-0.1675,-0.1676,-0.2154,-0.2159,-0.2162]}],[{"header":{"parameterUnit":"m.s-1","parameterCategory":2,"la1":30.2991,"la2":30.254,"lo1":-89.0895,"lo2":-89.0444,"dy":0.0017,"dx":0.0017,"nx":28,"ny":28,"refTime":"2025-02-23T03:00:00:Z","depth":"2","parameterNumber":2,"parameterNumberName":"U-component_of_CURRENTS"},"data":[0,0,0,0,0,0,0,0,0,0,0,0,0,0,0,0,0,0,0,0,0,0,0,0,0,0,0,0,0,0,0,0,0,0,0,0,0,0,0,0,0,0,0,0,0,0,0,0,0,0,0,0,0,0,0,0,0,0,0.2407,0.2407,0,0.2408,0.2408,0.2408,0.2389,0.2389,0.2389,0.2388,0.2362,0.2361,0.2361,0,0,0,0,0,0,0,0,0,0,0,0,0,0.2387,0.2388,0.2407,0.2407,0.2407,0.2408,0.2408,0.2408,0.2389,0.2389,0.2389,0.2388,0.2362,0.2361,0.2361,0,0,0,0,0,0,0,0,0,0,0,0,0,0.2391,0.2388,0.2407,0.24,0.2399,0.2408,0.2408,0.2408,0.2389,0.2389,0.2389,0.2388,0.2362,0.2361,0.2361,0.2366,0,0,0.2359,0.2358,0,0,0,0,0,0,0,0,0.2391,0.2391,0.2401,0.24,0.24,0.24,0.2392,0.2393,0.239,0.2391,0.2388,0.2388,0.2374,0.2372,0.2371,0.2365,0.2364,0.2359,0.2358,0.2358,0.2358,0,0,0,0,0,0,0,0.239,0.2391,0.2405,0.2401,0.2401,0.2396,0.2396,0.2392,0.2383,0.2391,0.239,0.2394,0.2373,0.2371,0.237,0.2363,0.2359,0.2358,0.2358,0.2357,0.2397,0.2398,0,0,0,0,0,0,0.2395,0.2391,0.2405,0.2406,0.2397,0.2397,0.2397,0.2399,0.2383,0.2381,0.2394,0.2393,0.2373,0.2371,0.2369,0.2399,0.2358,0.2357,0.2357,0.2395,0.2397,0.2399,0,0,0,0,0,0,0.2395,0.2397,0.2405,0.24,0.2401,0.2398,0.24,0.2399,0.2403,0.2387,0.2383,0.24,0.2372,0.237,0.2377,0.2396,0.2357,0.2357,0.2394,0.2396,0.2398,0.2442,0,0,0,0,0,0,0.2394,0.2396,0.2401,0.24,0.2402,0.242,0.2401,0.24,0.2407,0.2405,0.2391,0.2388,0.2372,0.2378,0.2376,0.2395,0.2356,0.2392,0.2395,0.2397,0.2439,0.2446,0.2452,0,0,0,0,0,0.2393,0.2402,0.2401,0.2403,0.2407,0.2421,0.2422,0.2416,0.2408,0.2416,0.2408,0.2388,0.2394,0.2378,0.2376,0.2395,0.2391,0.2394,0.2397,0.2436,0.2445,0.2451,0,0,0,0,0,0,0.2395,0.2402,0.24,0.241,0.242,0.2419,0.2427,0.2424,0.2424,0.2422,0.2402,0.2398,0.2416,0.2402,0.2386,0.2417,0.2391,0.2394,0.2422,0.243,0.2436,0.2447,0.2355,0,0,0,0,0,0.2399,0.2406,0.2414,0.2423,0.2431,0.2431,0.2436,0.2435,0.2435,0.2435,0.2425,0.2421,0.2427,0.2425,0.2427,0.2438,0.2449,0.2452,0.2458,0.2463,0.2473,0.2513,0.2523,0.2409,0.2409,0.2409,0,0,0.2401,0.2407,0.241,0.2424,0.243,0.2445,0.2432,0.2448,0.2459,0.2432,0.2443,0.2443,0.2438,0.2454,0.246,0.2443,0.2503,0.2468,0.2472,0.2479,0.2517,0.2528,0.2538,0.2411,0.2411,0.2411,0,0,0.2412,0.2418,0.2429,0.2441,0.2458,0.2462,0.247,0.2477,0.248,0.2493,0.2484,0.25,0.2494,0.2503,0.2504,0.2548,0.2539,0.2546,0.2579,0.2617,0.2627,0.2635,0.2669,0.268,0.2543,0.2544,0.2544,0,0.2414,0.2429,0.2436,0.2453,0.2466,0.2472,0.2491,0.2499,0.2506,0.2517,0.2503,0.2528,0.2521,0.2555,0.2569,0.2562,0.2579,0.2547,0.2625,0.2634,0.2642,0.2674,0.2686,0.2546,0.2546,0.2546,0.2545,0,0.2434,0.2448,0.2459,0.2481,0.2497,0.2517,0.2533,0.2548,0.2552,0.2559,0.2593,0.2593,0.261,0.2613,0.26,0.2656,0.2649,0.2632,0.2604,0.2656,0.2686,0.2698,0.255,0.2549,0.2548,0.2547,0,0,0.2428,0.2465,0.2467,0.248,0.2515,0.2526,0.256,0.259,0.2616,0.2625,0.2662,0.2678,0.2684,0.2688,0.2685,0.2713,0.2783,0.2696,0.2697,0.2726,0.287,0.2856,0.2867,0.2777,0.2779,0.2781,0.287,0,0.2441,0.2469,0.2491,0.252,0.2536,0.2563,0.2593,0.2622,0.2649,0.2686,0.2703,0.2736,0.2711,0.2728,0.2756,0.2781,0.2814,0.276,0.2818,0.282,0.2799,0.2881,0.2606,0.2661,0.2881,0.2883,0.2884,0,0.245,0.2467,0.2496,0.2536,0.2547,0.2567,0.2621,0.265,0.271,0.2738,0.2781,0.2797,0.285,0.2818,0.2892,0.2858,0.2873,0.2885,0.2888,0.2868,0.2828,0.2645,0.2674,0.2903,0.2902,0.29,0.2899,0,0.2427,0.2469,0.2489,0.2502,0.2551,0.257,0.2598,0.2659,0.2701,0.2777,0.2822,0.2877,0.2917,0.2948,0.2973,0.2941,0.3052,0.3008,0.3011,0.301,0.2785,0.2761,0.3068,0.3068,0.3068,0.3067,0.3067,0,0.2426,0.244,0.2476,0.2483,0.2513,0.2551,0.26,0.2647,0.273,0.2784,0.2842,0.2902,0.2952,0.3012,0.3016,0.3063,0.3091,0.3044,0.3043,0.2794,0.2771,0.2979,0.2968,0.3071,0.307,0.3069,0.3069,0,0.2397,0.2423,0.2444,0.2488,0.2502,0.2518,0.2595,0.2636,0.272,0.28,0.2831,0.2947,0.3028,0.3074,0.3143,0.3127,0.3164,0.3167,0.2878,0.2843,0.3082,0.3072,0.3187,0.3187,0.3188,0.3188,0.3188,0,0.2384,0.2391,0.2432,0.2445,0.2463,0.2498,0.253,0.2619,0.2672,0.2816,0.2854,0.2975,0.3049,0.3165,0.3144,0.3174,0.3207,0.2945,0.2841,0.3113,0.3101,0.309,0.3079,0.2553,0.2548,0.2544,0.2541,0,0.236,0.2375,0.2392,0.2415,0.244,0.247,0.252,0.2562,0.2667,0.274,0.2847,0.2925,0.3038,0.2956,0.3013,0.2984,0.292,0.2869,0.3227,0.2582,0.2527,0.2511,0.2519,0.2505,0.2508,0.2511,0.2513,0.2514,0.2341,0.2343,0.2365,0.2381,0.2406,0.2419,0.2418,0.2463,0.2521,0.2561,0.2721,0.2722,0.2768,0.2719,0.2659,0.26,0.2805,0.265,0.2657,0.2669,0.2597,0.2548,0.2515,0.2518,0.2521,0.2524,0.2526,0,0.2298,0.2315,0.2331,0.2332,0.2308,0.236,0.2394,0.2337,0.2325,0.2384,0.2426,0.2254,0.2227,0.227,0.2135,0.2178,0.2097,0.2082,0.1921,0.1961,0.1995,0.1882,0.1614,0.1611,0.1608,0.1605,0,0,0.228,0.2266,0.2266,0.2215,0.2223,0.2143,0.2139,0.2071,0.2056,0.1979,0.1944,0.2076,0.22,0.1849,0.1832,0.1695,0.1804,0.163,0.2365,0.2214,0.2244,0.2336,0.221,0,0,0,0,0]},{"header":{"parameterUnit":"m.s-1","parameterCategory":2,"la1":30.2991,"la2":30.254,"lo1":-89.0895,"lo2":-89.0444,"dy":0.0017,"dx":0.0017,"nx":28,"ny":28,"refTime":"2025-02-23T03:00:00:Z","depth":"2","parameterNumber":3,"parameterNumberName":"V-component_of_CURRENTS"},"data":[0,0,0,0,0,0,0,0,0,0,0,0,0,0,0,0,0,0,0,0,0,0,0,0,0,0,0,0,0,0,0,0,0,0,0,0,0,0,0,0,0,0,0,0,0,0,0,0,0,0,0,0,0,0,0,0,0,0,-0.0091,-0.0092,0,-0.0148,-0.0149,-0.015,-0.0189,-0.0189,-0.019,-0.019,-0.0256,-0.0258,-0.0259,0,0,0,0,0,0,0,0,0,0,0,0,0,-0.0061,-0.0061,-0.0091,-0.0092,-0.0092,-0.0148,-0.0149,-0.015,-0.0189,-0.0189,-0.019,-0.019,-0.0256,-0.0258,-0.0259,0,0,0,0,0,0,0,0,0,0,0,0,0,-0.0093,-0.0061,-0.0091,-0.0118,-0.012,-0.0148,-0.0149,-0.015,-0.0189,-0.0189,-0.019,-0.019,-0.0255,-0.0257,-0.026,-0.027,0,0,-0.0267,-0.0268,0,0,0,0,0,0,0,0,-0.0091,-0.0094,-0.0113,-0.0116,-0.0119,-0.0161,-0.0163,-0.019,-0.0189,-0.0165,-0.019,-0.019,-0.0224,-0.0229,-0.0241,-0.0273,-0.0276,-0.0267,-0.0269,-0.027,-0.0271,0,0,0,0,0,0,0,-0.0088,-0.0092,-0.0115,-0.0114,-0.0117,-0.0142,-0.0146,-0.0168,-0.0193,-0.0167,-0.0169,-0.0173,-0.0226,-0.0239,-0.0243,-0.0277,-0.0267,-0.0269,-0.0271,-0.0272,-0.0314,-0.0314,0,0,0,0,0,0,-0.0076,-0.009,-0.0113,-0.0117,-0.0104,-0.0142,-0.0147,-0.0148,-0.0193,-0.02,-0.0173,-0.0175,-0.0234,-0.024,-0.0245,-0.0245,-0.027,-0.0272,-0.0273,-0.0315,-0.0314,-0.0314,0,0,0,0,0,0,-0.0075,-0.0077,-0.0111,-0.0104,-0.0109,-0.0142,-0.0143,-0.0149,-0.016,-0.0198,-0.0205,-0.0177,-0.0235,-0.0242,-0.0258,-0.0248,-0.0273,-0.0275,-0.0315,-0.0315,-0.0314,-0.0254,0,0,0,0,0,0,-0.0074,-0.0077,-0.0074,-0.0103,-0.0109,-0.0119,-0.0143,-0.015,-0.0161,-0.0164,-0.0203,-0.021,-0.0235,-0.0254,-0.0261,-0.0252,-0.0277,-0.0316,-0.0315,-0.0314,-0.0256,-0.0251,-0.0247,0,0,0,0,0,-0.0073,-0.0063,-0.0073,-0.0076,-0.0104,-0.0118,-0.0124,-0.0149,-0.0161,-0.0161,-0.0187,-0.0209,-0.0255,-0.0256,-0.0263,-0.0255,-0.0316,-0.0315,-0.0314,-0.0258,-0.0252,-0.0247,0,0,0,0,0,0,-0.0049,-0.0067,-0.0079,-0.0076,-0.0093,-0.0124,-0.0126,-0.0144,-0.0165,-0.0168,-0.0205,-0.0213,-0.0224,-0.0248,-0.0248,-0.0266,-0.0289,-0.029,-0.0244,-0.0238,-0.0234,-0.0217,-0.0279,0,0,0,0,0,-0.0042,-0.004,-0.0063,-0.0061,-0.0066,-0.0096,-0.0105,-0.0121,-0.0143,-0.0153,-0.018,-0.0207,-0.0228,-0.0239,-0.0262,-0.0271,-0.0296,-0.0271,-0.0267,-0.0262,-0.0254,-0.0284,-0.0281,-0.0312,-0.0312,-0.0312,0,0,-0.0033,-0.0042,-0.0042,-0.0056,-0.0072,-0.0069,-0.0102,-0.011,-0.0108,-0.0156,-0.0163,-0.0193,-0.0227,-0.0237,-0.0244,-0.0255,-0.0267,-0.0262,-0.0258,-0.0252,-0.0283,-0.028,-0.0277,-0.0311,-0.0311,-0.0311,0,0,-0.0009,-0.0021,-0.001,-0.0018,-0.0033,-0.0049,-0.0047,-0.0074,-0.0087,-0.0099,-0.0131,-0.0151,-0.0186,-0.0206,-0.0221,-0.0205,-0.0243,-0.0215,-0.0177,-0.0206,-0.0203,-0.0202,-0.0227,-0.0228,-0.0211,-0.0211,-0.0211,0,0.0002,0.0014,-0.0009,0.0,0.0002,-0.0034,-0.0018,-0.0036,-0.0065,-0.0069,-0.0091,-0.0139,-0.017,-0.0178,-0.0174,-0.0194,-0.0217,-0.0193,-0.0199,-0.0198,-0.0197,-0.0224,-0.0225,-0.0208,-0.0209,-0.0209,-0.0209,0,0.0035,0.0044,0.0051,0.0054,0.0051,0.0059,0.0037,0.003,0.0009,-0.001,-0.0029,-0.0076,-0.0101,-0.0117,-0.0142,-0.0148,-0.0168,-0.019,-0.021,-0.019,-0.022,-0.0223,-0.0204,-0.0205,-0.0206,-0.0207,0,0,0.0067,0.0073,0.0077,0.0091,0.0083,0.0088,0.0092,0.0088,0.0099,0.0055,0.0059,0.0013,-0.0017,-0.0036,-0.0074,-0.0101,-0.0119,-0.0138,-0.0141,-0.0157,-0.018,-0.0194,-0.02,-0.0144,-0.0144,-0.0144,-0.0202,0,0.0101,0.0136,0.0129,0.0165,0.0183,0.016,0.0168,0.0158,0.0144,0.0137,0.0082,0.0069,0.0015,0.0005,-0.0031,-0.0093,-0.0124,-0.0101,-0.0202,-0.0205,-0.0215,-0.0202,-0.0167,-0.0217,-0.0206,-0.0206,-0.0207,0,0.0141,0.0161,0.0201,0.0226,0.0232,0.0243,0.026,0.0265,0.0245,0.023,0.0203,0.0159,0.0117,0.0064,-0.0034,-0.0016,-0.009,-0.0147,-0.0151,-0.0186,-0.0224,-0.0236,-0.0223,-0.0212,-0.0212,-0.0211,-0.0211,0,0.0184,0.0216,0.0253,0.0261,0.0276,0.0288,0.0296,0.0293,0.0317,0.0294,0.0304,0.0235,0.021,0.0108,-0.0009,-0.0021,-0.012,-0.0155,-0.0239,-0.0241,-0.0242,-0.0243,-0.0227,-0.0227,-0.0227,-0.0227,-0.0227,0,0.0231,0.0261,0.0274,0.0295,0.0343,0.0334,0.0383,0.0379,0.0391,0.0431,0.0357,0.0371,0.022,0.0145,0.0021,-0.011,-0.01,-0.0227,-0.0255,-0.022,-0.0219,-0.0241,-0.0241,-0.0229,-0.0229,-0.0228,-0.0228,0,0.0273,0.028,0.0326,0.0351,0.0364,0.0398,0.0448,0.0489,0.0483,0.0533,0.0531,0.0477,0.0381,0.0226,0.0066,-0.0057,-0.0191,-0.0244,-0.019,-0.0212,-0.0303,-0.03,-0.0344,-0.0345,-0.0346,-0.0346,-0.0347,0,0.0298,0.0325,0.0372,0.0408,0.0421,0.0471,0.0512,0.0532,0.0587,0.0607,0.0642,0.0567,0.0537,0.0297,0.0074,-0.0142,-0.0185,-0.027,-0.0294,-0.0291,-0.0314,-0.031,-0.0306,-0.0272,-0.0272,-0.0272,-0.0272,0,0.0349,0.0361,0.0401,0.047,0.0522,0.059,0.0652,0.071,0.074,0.0785,0.0829,0.0807,0.0587,0.0388,0.0083,-0.0068,-0.0235,-0.0276,-0.0283,-0.0247,-0.0228,-0.0249,-0.0247,-0.0271,-0.0272,-0.0272,-0.0272,-0.0272,0.0388,0.0424,0.0474,0.0542,0.0608,0.0695,0.0755,0.0839,0.0933,0.0993,0.0966,0.0931,0.07,0.0327,0.0071,-0.0215,-0.0213,-0.0324,-0.0322,-0.0321,-0.0301,-0.0284,-0.0334,-0.0335,-0.0335,-0.0336,-0.0336,0,0.0444,0.0477,0.0544,0.0623,0.0705,0.0723,0.0841,0.0913,0.1032,0.1073,0.1101,0.0902,0.0671,0.0389,-0.0019,-0.0262,-0.0278,-0.0351,-0.0313,-0.0312,-0.0311,-0.0289,-0.0321,-0.0322,-0.0322,-0.0323,0,0,0.0475,0.0544,0.0572,0.0694,0.0747,0.0859,0.0926,0.1037,0.1098,0.1158,0.1131,0.1067,0.0746,0.0458,0.0138,-0.0098,-0.0158,-0.0149,-0.0135,-0.0052,-0.0048,-0.0268,-0.0229,0,0,0,0,0]}],[{"header":{"parameterUnit":"m.s-1","parameterCategory":2,"la1":30.2991,"la2":30.254,"lo1":-89.0895,"lo2":-89.0444,"dy":0.0017,"dx":0.0017,"nx":28,"ny":28,"refTime":"2025-02-23T03:00:00:Z","depth":"4","parameterNumber":2,"parameterNumberName":"U-component_of_CURRENTS"},"data":[0,0,0,0,0,0,0,0,0,0,0,0,0,0,0,0,0,0,0,0,0,0,0,0,0,0,0,0,0,0,0,0,0,0,0,0,0,0,0,0,0,0,0,0,0,0,0,0,0,0,0,0,0,0,0,0,0,0,0.1561,0.1562,0,0.1616,0.1617,0.1617,0.1665,0.1665,0.1666,0.1666,0.1733,0.1734,0.1735,0,0,0,0,0,0,0,0,0,0,0,0,0,0.149,0.1491,0.1561,0.1562,0.1562,0.1616,0.1617,0.1618,0.1664,0.1665,0.1666,0.1667,0.1733,0.1734,0.1735,0,0,0,0,0,0,0,0,0,0,0,0,0,0.153,0.1492,0.1561,0.1593,0.1597,0.1616,0.1617,0.1618,0.1664,0.1665,0.1666,0.1667,0.1732,0.1734,0.1736,0.1727,0,0,0.1741,0.1742,0,0,0,0,0,0,0,0,0.1527,0.1532,0.1588,0.1591,0.1595,0.1636,0.1617,0.1655,0.1664,0.1637,0.1666,0.1668,0.1702,0.1706,0.1712,0.173,0.1733,0.1741,0.1742,0.1743,0.1744,0,0,0,0,0,0,0,0.1525,0.153,0.1581,0.1588,0.1593,0.1604,0.161,0.1624,0.1663,0.164,0.1644,0.1652,0.1704,0.171,0.1714,0.1734,0.1741,0.1743,0.1744,0.1744,0.1855,0.1857,0,0,0,0,0,0,0.152,0.1527,0.158,0.1583,0.1564,0.1604,0.1611,0.1621,0.1662,0.167,0.1651,0.1654,0.1707,0.1712,0.1717,0.1802,0.1743,0.1745,0.1746,0.1853,0.1856,0.1858,0,0,0,0,0,0,0.1518,0.1524,0.1578,0.1558,0.1565,0.1605,0.1614,0.1621,0.1663,0.1671,0.1679,0.1689,0.1708,0.1714,0.1764,0.1801,0.1745,0.1747,0.1851,0.1854,0.1857,0.1913,0,0,0,0,0,0,0.1516,0.1523,0.1545,0.1557,0.1566,0.1612,0.1614,0.1622,0.1665,0.167,0.1706,0.1711,0.1709,0.1761,0.1765,0.1803,0.1748,0.1849,0.1852,0.1856,0.1909,0.1917,0.1925,0,0,0,0,0,0.1513,0.1533,0.1545,0.1553,0.1589,0.1613,0.162,0.1649,0.1666,0.1689,0.1718,0.1712,0.1787,0.1764,0.1769,0.1807,0.1847,0.1851,0.1855,0.1905,0.1916,0.1924,0,0,0,0,0,0,0.1515,0.154,0.1554,0.1582,0.1608,0.1623,0.1653,0.1668,0.1709,0.1726,0.1732,0.1739,0.1798,0.1796,0.1771,0.1851,0.1817,0.1823,0.1854,0.1863,0.1871,0.1873,0.175,0,0,0,0,0,0.1524,0.155,0.157,0.1598,0.1614,0.164,0.1661,0.1681,0.1709,0.173,0.1754,0.1784,0.1812,0.1834,0.1856,0.1896,0.1898,0.1926,0.1934,0.1941,0.1947,0.1984,0.1995,0.1871,0.1871,0.1871,0,0,0.1534,0.1552,0.1568,0.1602,0.1627,0.1653,0.1656,0.1699,0.173,0.1729,0.1794,0.1816,0.1831,0.188,0.1906,0.1887,0.198,0.1946,0.1952,0.1954,0.1989,0.2001,0.2012,0.1874,0.1874,0.1873,0,0,0.1553,0.1584,0.1608,0.1632,0.1675,0.1689,0.1709,0.1745,0.1777,0.1829,0.1842,0.1889,0.193,0.195,0.1962,0.2028,0.2022,0.2042,0.2083,0.2119,0.2129,0.2138,0.2161,0.2171,0.2045,0.2045,0.2045,0,0.1567,0.1597,0.1621,0.1649,0.1677,0.1709,0.1741,0.1772,0.1823,0.1854,0.1862,0.1945,0.1961,0.2016,0.2044,0.2046,0.2062,0.2042,0.2129,0.2138,0.2146,0.2166,0.2177,0.2048,0.2048,0.2047,0.2047,0,0.1591,0.163,0.165,0.1695,0.1726,0.1764,0.1802,0.1848,0.1891,0.1918,0.1996,0.2024,0.2071,0.2089,0.2088,0.2159,0.215,0.2134,0.21,0.2161,0.2179,0.219,0.2053,0.2052,0.2051,0.205,0,0,0.1578,0.1653,0.1663,0.1693,0.1758,0.1779,0.1845,0.1902,0.195,0.2008,0.207,0.2128,0.2152,0.2169,0.2182,0.2216,0.2289,0.2208,0.2208,0.2223,0.237,0.222,0.2216,0.2293,0.2295,0.2296,0.236,0,0.1595,0.1649,0.1688,0.1749,0.1779,0.1835,0.1888,0.1947,0.2005,0.2073,0.2119,0.2186,0.2179,0.2219,0.2253,0.2285,0.2319,0.2273,0.2314,0.2315,0.2168,0.2223,0.2303,0.2367,0.2369,0.2371,0.2372,0,0.1597,0.1636,0.1698,0.1776,0.1797,0.1844,0.1936,0.1988,0.2082,0.2134,0.2206,0.2244,0.232,0.2302,0.2383,0.2358,0.2374,0.2387,0.2389,0.2234,0.2183,0.2294,0.239,0.2389,0.2388,0.2386,0.2385,0,0.1556,0.164,0.1692,0.1719,0.1811,0.1861,0.1917,0.2011,0.2069,0.2183,0.2239,0.2321,0.238,0.2418,0.2452,0.2433,0.2525,0.2495,0.2372,0.2361,0.2452,0.2441,0.2549,0.2549,0.2548,0.2548,0.2548,0,0.1537,0.1581,0.1682,0.1707,0.1777,0.1849,0.1934,0.2005,0.2114,0.2175,0.2271,0.2323,0.2417,0.2472,0.2484,0.2457,0.2553,0.2386,0.2369,0.2475,0.2466,0.2459,0.2448,0.2551,0.255,0.255,0.2549,0,0.1478,0.1548,0.161,0.172,0.176,0.1808,0.1939,0.1991,0.2108,0.2194,0.2238,0.2359,0.242,0.2486,0.2554,0.2483,0.2483,0.245,0.2569,0.2557,0.2287,0.2279,0.2309,0.2304,0.23,0.2297,0.2294,0,0.1448,0.1478,0.1603,0.1645,0.1703,0.179,0.1848,0.1977,0.2028,0.2185,0.2207,0.2325,0.2383,0.2352,0.2435,0.2447,0.2418,0.2402,0.2328,0.2283,0.2265,0.2262,0.2259,0.2288,0.2287,0.2286,0.2285,0,0.1391,0.1455,0.1506,0.1589,0.1661,0.1722,0.1811,0.1837,0.197,0.2099,0.212,0.215,0.2213,0.2249,0.2283,0.2285,0.2401,0.2359,0.2367,0.2297,0.2258,0.2243,0.2244,0.2271,0.2273,0.2274,0.2275,0,0.1355,0.1375,0.1455,0.1514,0.1596,0.1619,0.168,0.1726,0.1789,0.1949,0.1952,0.2066,0.2182,0.2166,0.2196,0.2189,0.2149,0.2069,0.2091,0.2107,0.2012,0.193,0.1833,0,0,0,0,0,0.1305,0.1317,0.1369,0.1418,0.1492,0.1535,0.1637,0.1698,0.1822,0.1785,0.186,0.1902,0.1932,0.1998,0.195,0.2121,0.217,0.2058,0.2093,0.2194,0.221,0.2116,0,0,0,0,0,0,0.1272,0.132,0.1333,0.1322,0.1335,0.1394,0.1452,0.1539,0.152,0.1655,0.168,0.1785,0.1847,0.1934,0.1911,0.1933,0.1915,0.2138,0.2133,0.2185,0.2199,0.2212,0.2121,0,0,0,0,0]},{"header":{"parameterUnit":"m.s-1","parameterCategory":2,"la1":30.2991,"la2":30.254,"lo1":-89.0895,"lo2":-89.0444,"dy":0.0017,"dx":0.0017,"nx":28,"ny":28,"refTime":"2025-02-23T03:00:00:Z","depth":"4","parameterNumber":3,"parameterNumberName":"V-component_of_CURRENTS"},"data":[0,0,0,0,0,0,0,0,0,0,0,0,0,0,0,0,0,0,0,0,0,0,0,0,0,0,0,0,0,0,0,0,0,0,0,0,0,0,0,0,0,0,0,0,0,0,0,0,0,0,0,0,0,0,0,0,0,0,0.0102,0.0102,0,0.006,0.006,0.0059,0.003,0.003,0.003,0.0029,-0.0027,-0.0028,-0.0029,0,0,0,0,0,0,0,0,0,0,0,0,0,0.0124,0.0124,0.0103,0.0102,0.0102,0.006,0.006,0.0059,0.003,0.003,0.003,0.0029,-0.0026,-0.0028,-0.0029,0,0,0,0,0,0,0,0,0,0,0,0,0,0.0101,0.0124,0.0103,0.0083,0.0081,0.0061,0.006,0.0059,0.003,0.003,0.003,0.0029,-0.0026,-0.0028,-0.003,-0.0038,0,0,-0.0036,-0.0037,0,0,0,0,0,0,0,0,0.0102,0.01,0.0086,0.0084,0.0082,0.0051,0.0047,0.0026,0.003,0.0048,0.0029,0.0029,-0.0001,-0.0005,-0.0014,-0.0041,-0.0043,-0.0036,-0.0037,-0.0038,-0.0039,0,0,0,0,0,0,0,0.0104,0.0101,0.0085,0.0086,0.0083,0.0065,0.0061,0.0043,0.0024,0.0047,0.0045,0.0042,-0.0003,-0.0012,-0.0016,-0.0044,-0.0036,-0.0038,-0.0039,-0.004,-0.0084,-0.0084,0,0,0,0,0,0,0.0113,0.0103,0.0086,0.0084,0.0093,0.0065,0.0061,0.006,0.0024,0.0019,0.0042,0.004,-0.0008,-0.0013,-0.0018,-0.0022,-0.0038,-0.004,-0.0041,-0.0084,-0.0084,-0.0084,0,0,0,0,0,0,0.0114,0.0112,0.0088,0.0093,0.0089,0.0065,0.0064,0.006,0.0051,0.0021,0.0015,0.0038,-0.0009,-0.0015,-0.0031,-0.0025,-0.0041,-0.0043,-0.0084,-0.0084,-0.0084,-0.0036,0,0,0,0,0,0,0.0115,0.0113,0.0116,0.0094,0.0089,0.0081,0.0064,0.0059,0.005,0.0048,0.0016,0.0011,-0.0009,-0.0027,-0.0033,-0.0028,-0.0045,-0.0084,-0.0084,-0.0084,-0.0038,-0.0034,-0.0031,0,0,0,0,0,0.0116,0.0123,0.0117,0.0114,0.0094,0.0082,0.0077,0.0059,0.005,0.005,0.0028,0.0012,-0.0031,-0.0029,-0.0035,-0.0031,-0.0084,-0.0084,-0.0084,-0.0039,-0.0035,-0.0031,0,0,0,0,0,0,0.0135,0.012,0.0113,0.0115,0.0102,0.0077,0.0076,0.0062,0.0045,0.0043,0.0013,0.0007,-0.0006,-0.0026,-0.0023,-0.0044,-0.006,-0.0061,-0.0024,-0.0021,-0.0018,-0.0001,-0.0046,0,0,0,0,0,0.0141,0.0143,0.0124,0.0127,0.0122,0.01,0.0092,0.008,0.0062,0.0053,0.0031,0.0008,-0.0011,-0.0021,-0.0041,-0.0051,-0.0071,-0.0053,-0.005,-0.0047,-0.0039,-0.0065,-0.0063,-0.0083,-0.0083,-0.0083,0,0,0.015,0.0142,0.0143,0.0132,0.012,0.012,0.0095,0.0088,0.0088,0.005,0.0044,0.0018,-0.0012,-0.0023,-0.003,-0.0037,-0.0053,-0.0047,-0.0044,-0.0037,-0.0064,-0.0062,-0.006,-0.0083,-0.0083,-0.0083,0,0,0.017,0.0162,0.017,0.0162,0.015,0.0137,0.0137,0.0114,0.0104,0.0092,0.0066,0.0047,0.0016,-0.0001,-0.0014,-0.0006,-0.0036,-0.0016,0.0015,-0.001,-0.0009,-0.0007,-0.0032,-0.0034,-0.0013,-0.0013,-0.0013,0,0.0181,0.0189,0.017,0.0176,0.0177,0.0148,0.0159,0.0144,0.0119,0.0116,0.0097,0.0055,0.0028,0.0019,0.002,0.0003,-0.0018,0.0005,-0.0005,-0.0004,-0.0004,-0.003,-0.0032,-0.0011,-0.0011,-0.0011,-0.0012,0,0.0206,0.0213,0.0218,0.0219,0.0216,0.022,0.0201,0.0194,0.0176,0.0161,0.0143,0.0103,0.008,0.0065,0.0045,0.0037,0.0019,0.0002,-0.0011,0.0001,-0.0027,-0.003,-0.0007,-0.0008,-0.0009,-0.001,0,0,0.0234,0.0236,0.0239,0.025,0.024,0.0243,0.0244,0.0239,0.0248,0.021,0.0212,0.0171,0.0147,0.0131,0.0098,0.0075,0.0056,0.0044,0.0042,0.0026,-0.0001,-0.0008,-0.0012,0.0036,0.0036,0.0035,-0.0023,0,0.0261,0.0285,0.0278,0.0306,0.0318,0.0299,0.0304,0.0296,0.0282,0.0275,0.0229,0.0217,0.0173,0.0163,0.0132,0.0078,0.005,0.0073,-0.0016,-0.0019,-0.0021,-0.0015,0.0035,-0.0025,-0.0026,-0.0027,-0.0027,0,0.029,0.0304,0.0334,0.0354,0.0358,0.0368,0.0381,0.0383,0.0364,0.0352,0.0328,0.0291,0.0253,0.021,0.0124,0.014,0.0077,0.0028,0.0024,0.0002,-0.0031,-0.0042,-0.0033,-0.0032,-0.0032,-0.0032,-0.0031,0,0.0323,0.0347,0.0376,0.0381,0.0393,0.0405,0.0412,0.0408,0.0425,0.0405,0.0412,0.0352,0.0328,0.0242,0.014,0.0132,0.004,0.0015,-0.0053,-0.0055,-0.0052,-0.0053,-0.0047,-0.0047,-0.0047,-0.0047,-0.0047,0,0.0355,0.0382,0.0394,0.041,0.045,0.0444,0.0485,0.0481,0.0489,0.0516,0.0457,0.0456,0.0335,0.0266,0.0162,0.005,0.0055,-0.0043,-0.0068,-0.0032,-0.003,-0.0055,-0.0055,-0.0049,-0.0049,-0.0048,-0.0048,0,0.0385,0.0392,0.0431,0.0453,0.0467,0.0496,0.0541,0.0571,0.0568,0.0599,0.0596,0.0539,0.0445,0.0319,0.0179,0.009,-0.0024,-0.0068,-0.0014,-0.0035,-0.011,-0.0107,-0.0147,-0.0147,-0.0148,-0.0148,-0.0149,0,0.0401,0.0423,0.0467,0.0497,0.0511,0.0555,0.0589,0.0608,0.0643,0.0649,0.0664,0.0592,0.0531,0.0338,0.0195,-0.0001,-0.0035,-0.0096,-0.011,-0.0099,-0.0119,-0.0115,-0.0111,-0.015,-0.015,-0.015,-0.015,0,0.0434,0.0449,0.048,0.0539,0.0585,0.064,0.0688,0.072,0.0739,0.0743,0.0721,0.0618,0.051,0.0346,0.0195,0.0052,-0.0056,-0.0103,-0.0103,-0.0117,-0.0103,-0.0121,-0.0117,-0.0152,-0.0152,-0.0152,-0.0152,0,0.0459,0.0486,0.0526,0.0578,0.0641,0.0698,0.0723,0.0754,0.0784,0.078,0.0772,0.0649,0.0579,0.0373,0.0236,0.0094,0.0048,-0.0006,-0.0013,-0.0012,0.0038,0.0077,0.0067,0,0,0,0,0,0.048,0.0509,0.0561,0.0616,0.068,0.0716,0.0777,0.0796,0.0815,0.0806,0.0789,0.0685,0.0481,0.0399,0.0256,0.0212,0.0018,0.0038,-0.0049,-0.0163,-0.0161,-0.0126,0,0,0,0,0,0,0.0494,0.0542,0.0561,0.0638,0.0681,0.0754,0.0795,0.081,0.0801,0.0797,0.0695,0.0641,0.0448,0.0562,0.0251,0.0209,0.0132,-0.0055,-0.0059,-0.0164,-0.0162,-0.016,-0.0124,0,0,0,0,0]}]]